Weather History for Cincinnati, OH

Change the Weather History Date:

Tuesday, June 10, 2014

  Actual Average Record
Temperature  
Mean Temperature 68 °F -  
Max Temperature 80 °F 81 °F 95 °F (1999)
Min Temperature 60 °F 59 °F 44 °F (1977)
Cooling Degree Days 4    
Growing Degree Days 18 (Base 50)    
Moisture  
Dew Point 64 °F    
Average Humidity 93    
Maximum Humidity 100    
Minimum Humidity 74    
Precipitation  
Precipitation 0.57 in - - ()
Sea Level Pressure  
Sea Level Pressure 29.88 in    
Wind  
Wind Speed 3 mph (NNE)    
Max Wind Speed 7 mph    
Max Gust Speed -    
Visibility 5 miles    
Events Fog , Rain , Thunderstorm    
Averages and records for this station are not official NWS values.
T = Trace of Precipitation, MM = Missing Value Source: NWS Daily Summary

Daily Weather History Graph

Daily Weather History Graph

Search for Another Location

Airport:

Trip Planner

Search our weather history database for the weather conditions in past years. The results will help you decide how hot, cold, wet, or windy it might be!

Date:

Astronomy

Jun. 10, 2014 Rise Set
Actual Time 6:11 AM EDT 9:03 PM EDT
Civil Twilight 5:39 AM EDT 9:35 PM EDT
Nautical Twilight 4:59 AM EDT 10:15 PM EDT
Astronomical Twilight 4:12 AM EDT 11:01 PM EDT
Moon 6:28 PM EDT (6/10) 4:15 AM EDT (6/10)
Length of Visible Light 15h 55m
Length of Day
14h 51m
Waxing Gibbous, 92% of the Moon is Illuminated
Jun 10
Waxing Gibbous
Jun 13
Full
Jun 19
Last Quarter
Jun 27
New
Jul 5
First Quarter

Hourly Weather History & Observations

Time (EDT) Temp. Dew Point Humidity Pressure Visibility Wind Dir Wind Speed Gust Speed Precip Events Conditions
12:53 AM 61.0 °F 60.1 °F 97% 29.93 in 9.0 mi Calm Calm - N/A   Clear
1:53 AM 60.1 °F 59.0 °F 96% 29.91 in 6.0 mi Calm Calm - N/A   Clear
2:53 AM 60.1 °F 59.0 °F 96% 29.90 in 6.0 mi Calm Calm - N/A   Clear
3:53 AM 60.1 °F 60.1 °F 100% 29.89 in 4.0 mi Calm Calm - N/A   Clear
4:53 AM 61.0 °F 60.1 °F 97% 29.88 in 6.0 mi Calm Calm - N/A   Mostly Cloudy
5:53 AM 62.1 °F 61.0 °F 96% 29.87 in 5.0 mi NNE 5.8 mph - 0.02 in Rain Light Rain
6:53 AM 63.0 °F 61.0 °F 93% 29.86 in 6.0 mi NNE 6.9 mph - 0.01 in   Overcast
7:49 AM 62.6 °F 62.6 °F 100% 29.90 in 1.8 mi Calm Calm - 0.03 in Rain Rain
7:53 AM 63.0 °F 61.0 °F 93% 29.89 in 2.0 mi Calm Calm - 0.03 in Rain Rain
8:20 AM 63.0 °F 62.1 °F 97% 29.91 in 2.0 mi North 5.8 mph - 0.06 in Rain Rain
8:27 AM 63.0 °F 62.1 °F 97% 29.90 in 2.0 mi North 5.8 mph - 0.07 in Rain Rain
8:53 AM 63.0 °F 62.1 °F 97% 29.89 in 1.0 mi NNE 6.9 mph - 0.11 in Rain Light Rain
9:18 AM 63.0 °F 63.0 °F 100% 29.91 in 1.0 mi NE 3.5 mph - 0.01 in Rain Light Rain
9:25 AM 63.0 °F 63.0 °F 100% 29.91 in 0.8 mi NE 4.6 mph - 0.02 in Rain Light Rain
9:48 AM 64.4 °F 62.6 °F 94% 29.91 in 1.0 mi NE 4.6 mph - 0.03 in Rain Light Rain
9:49 AM 64.0 °F 63.0 °F 96% 29.90 in 1.2 mi NE 4.6 mph - 0.03 in Rain Light Rain
10:07 AM 64.0 °F 63.0 °F 96% 29.91 in 2.0 mi NE 6.9 mph - 0.01 in Rain Light Rain
10:18 AM 64.0 °F 63.0 °F 96% 29.91 in 3.0 mi NE 5.8 mph - 0.01 in Rain Light Rain
10:53 AM 64.4 °F 62.6 °F 94% 29.92 in 3.0 mi ENE 3.5 mph - N/A   Overcast
11:53 AM 66.0 °F 64.0 °F 93% 29.92 in 3.0 mi NE 6.9 mph - N/A   Overcast
12:12 PM 66.0 °F 64.0 °F 93% 29.92 in 4.0 mi ENE 5.8 mph - N/A   Overcast
12:53 PM 68.0 °F 64.4 °F 88% 29.92 in 3.0 mi NE 4.6 mph - N/A   Overcast
1:53 PM 72.0 °F 66.0 °F 81% 29.90 in 7.0 mi Variable 3.5 mph - N/A   Overcast
2:16 PM 73.9 °F 66.9 °F 79% 29.90 in 7.0 mi NNE 3.5 mph - N/A   Scattered Clouds
2:53 PM 75.2 °F 68.0 °F 78% 29.89 in 10.0 mi Calm Calm - N/A   Partly Cloudy
3:53 PM 77.0 °F 68.0 °F 74% 29.86 in 10.0 mi NNE 4.6 mph - N/A   Mostly Cloudy
5:53 PM 77.0 °F 68.0 °F 74% 29.82 in 10.0 mi NNE 6.9 mph - N/A   Overcast
6:29 PM 75.9 °F 68.0 °F 76% 29.83 in 10.0 mi North 4.6 mph - 0.00 in Rain , Thunderstorm Light Thunderstorms and Rain
6:53 PM 73.0 °F 70.0 °F 90% 29.83 in 5.0 mi NW 5.8 mph - 0.05 in Rain , Thunderstorm Light Thunderstorms and Rain
7:19 PM 70.0 °F 68.0 °F 93% 29.85 in 2.5 mi WNW 5.8 mph - 0.09 in Rain , Thunderstorm Light Thunderstorms and Rain
7:53 PM 69.1 °F 68.0 °F 96% 29.83 in 4.0 mi East 3.5 mph - 0.24 in Rain , Thunderstorm Light Thunderstorms and Rain
8:46 PM 69.1 °F 66.9 °F 93% 29.83 in 8.0 mi Calm Calm - 0.08 in   Overcast
8:53 PM 69.1 °F 68.0 °F 96% 29.82 in 9.0 mi Calm Calm - 0.08 in   Overcast
9:36 PM 68.0 °F 64.9 °F 90% 29.83 in 10.0 mi ESE 5.8 mph - 0.00 in   Overcast
9:53 PM 66.9 °F 64.9 °F 93% 29.82 in 10.0 mi SW 4.6 mph - 0.00 in   Overcast
10:53 PM 66.2 °F 64.4 °F 94% 29.83 in 10.0 mi Calm Calm - N/A   Partly Cloudy
11:26 PM 64.0 °F 64.0 °F 100% 29.83 in 1.8 mi Calm Calm - N/A   Partly Cloudy
11:43 PM 63.0 °F 63.0 °F 100% 29.84 in 0.5 mi Calm Calm - N/A Fog Fog
11:53 PM 64.0 °F 64.0 °F 100% 29.83 in 0.8 mi Calm Calm - N/A   Mostly Cloudy